Current weather by "City, St" or "zip code"  
 

Current Conditions: AURORA

Clear


59.4 F

Last Updated on May 26 2024, 02:55 AM CDT
Humidity: 93%
Wind Speed: SW 9.2 mph
Barometer 29.57 in
Dewpoint: 57.2 F
Visibility: 10.00 mi
Precip: --
Heat Index: NA
Wind Chill: NA
Current conditions at:

AURORA (KAUH)

Lat: 40.89 Lon: 97.99

active severe weather and emergency alerts image image weather storm and storm spotter reports image weather observation monitoring service image
Active
Alerts
Storm Reports Obs
Monitoring

Sign-up For Email & Text Message Weather Alert Notification Services



Advertise Here

Observation History for AURORA


Time Wind
(mph)
Vis
(mi)
Weather Precip (in) Temperature (F) Relative
Humidity
Wind
Chill
(F)
Heat
Index
(F)
Pressure
Air Dwpt altimeter
(in)
sea level
(mb)
Rmks
02:55 AM CDT SW 9.2 10.00 Clear -- 59.4 57.2 93% NA NA 29.57 1001.4
01:55 AM CDT 0.0 10.00 Partly Cloudy -- 61.3 57.2 86% NA NA 29.58 1001.7
01:35 AM CDT S 5.8 10.00 Partly Cloudy -- 63.0 56.1 78% NA NA 29.59 1002.0
12:55 AM CDT 10.00 Mostly Cloudy -- 63.1 55.8 77% NA NA 29.53 1000.0
12:35 AM CDT 30.0 10.00 Light Rain -- 62.6 56.7 81% NA NA 29.47 998.0
11:55 PM CDT 5.8 10.00 Partly Cloudy 00.11 63.0 56.5 79% NA NA 29.60 1002.4
11:35 PM CDT 10.3 4.00 Rain 00.11 63.0 57.7 83% NA NA 29.60 1002.4
11:15 PM CDT 10.00 Mostly Cloudy -- 66.0 57.9 75% NA NA 29.60 1002.4
10:55 PM CDT 0.0 10.00 Light Rain -- 67.5 56.7 68% NA NA 29.58 1001.7
10:35 PM CDT E 3.4 10.00 Light Rain -- 68.5 56.8 66% NA NA 29.59 1002.0
09:55 PM CDT E 9.2 10.00 Clear -- 70.5 52.7 53% NA 69.8 29.55 1000.7
09:35 PM CDT E 13.9 10.00 Clear -- 69.3 51.3 53% NA NA 29.50 999.0
09:15 PM CDT E 12.8 10.00 Clear -- 69.3 51.8 54% NA NA 29.51 999.3
08:55 PM CDT E 8.1 10.00 Clear -- 70.2 51.8 52% NA 69.3 29.54 1000.3
08:35 PM CDT 9.2 10.00 Clear -- 72.1 50.9 47% NA 71.2 29.56 1001.0
08:15 PM CDT SE 9.2 10.00 Clear -- 73.9 50.5 44% NA 73.0 29.57 1001.4
07:55 PM CDT SE 9.2 10.00 Clear -- 74.7 50.5 43% NA 73.8 29.58 1001.7
06:55 PM CDT 11.4 10.00 Clear -- 75.4 48.2 38% NA 74.5 29.57 1001.4
06:15 PM CDT 10.00 Clear -- NULL % NA NA M
05:55 PM CDT S 13.9 10.00 Clear -- 75.6 46.9 36% NA 74.5 29.61 1002.7
05:35 PM CDT S 16.1 10.00 Clear -- 77.2 45.5 33% NA 76.1 29.63 1003.4
04:55 PM CDT S 15.0 10.00 Clear -- 75.6 45.7 35% NA 74.5 29.63 1003.4
04:35 PM CDT S 16.1 10.00 Clear -- 75.6 45.1 34% NA 74.5 29.64 1003.7
04:15 PM CDT 10.00 NULL -- NULL % NA NA M

Regional Weather Observation


AURORA (KAUH)

Clear
59.4 F

ALBION MUNI (KBVN)

Clear
57.4 F

HASTINGS (KHSI)

Clear
57.9 F

YORK (KJYR)

Partly Cloudy
59.0 F

ORD/SHARP FIELD (KODX)

Clear
54.0 F

COLUMBUS MUNI (KOLU)

Clear
63.0 F

Advertise Here


Advertise Here